Meath Environmental Platform

Observations

Time Sensor AQI SAQ Temp °C Hum % Pres Pa CO μg/m³ H₂S μg/m³ NO μg/m³ NO₂ μg/m³ O₃ μg/m³ SO₂ μg/m³ CO₂e PPM VOC PPM PM1 μg/m³ PM2.5 μg/m³ PM4 μg/m³ PM10 μg/m³ TPS µm
Tuesday 11 August 2026
21:20 Trim Patrick St 3 24.1 46 69,053 0 29.04 1.14 51.11 42.21 12.1 6.29 12.8 14.08
21:19 Trim Patrick St 3 24.2 46 69,076 0 29.09 1.15 57.72 42.62 12.21 5.43 11.3 12.43
21:19 Trim Market St 3 24.8 44 64,946 0 11.51 1.12 33.93 54.1 0 2.85 5.35 5.96
21:18 Trim Patrick St 3 24.2 46 69,082 0 30.18 1.13 55.24 41.05 12.3 4.57 9.72 10.7
21:17 Trim Patrick St 3 24.3 46 69,084 0 30.04 1.13 53.22 42.45 12.73 6.29 11.31 12.44
21:16 Trim Patrick St 3 24.3 47 69,092 0 29.78 1.11 52.17 43.59 12.65 4.57 10.47 11.52
21:15 Trim Patrick St 3 24.4 46 69,100 0 29.99 1.11 48.18 42.62 12.47 7.14 12.06 13.27
21:14 Trim Patrick St 3 24.5 46 69,082 0 31.03 1.1 57.07 40.34 13.02 5.43 11.3 12.43
21:14 Trim Market St 3 25.1 43 65,192 0 11.48 1.09 33.81 53.95 0 2.14 4.87 5.95
21:13 Trim Patrick St 3 24.5 45 69,090 0 31.8 1.16 55.48 43.9 13.22 4.57 10.63 11.69
21:12 Trim Patrick St 3 24.6 46 69,067 0 31.58 1.08 53.64 43.64 13.73 6.29 12.06 13.27
21:11 Trim Patrick St 3 24.6 46 69,069 0 31.77 1.07 56.37 45.31 13.34 5.43 10.51 11.56
21:11 Trim Market St 3 25.2 42 65,347 0 12.28 1.08 34.59 57.84 0 2.14 5.42 6.73
21:10 Trim Patrick St 3 24.7 44 69,098 0 31.87 1.13 53.93 44.35 13.61 6.29 12.98 14.27
21:09 Trim Patrick St 3 24.7 44 69,082 0 31.9 1.13 56.33 47 13.92 6.29 12.21 13.43
21:08 Trim Patrick St 3 24.8 45 69,090 0 31.77 1.08 53.17 43.53 13.39 7.14 15.26 16.78
21:07 Trim Patrick St 3 24.8 46 69,098 0 31.98 1.05 51.79 45.72 13.88 5.43 10.56 11.62
21:06 Trim Patrick St 3 24.9 45 69,082 0 31.55 1.08 54.98 45.33 13.88 5.43 12.18 13.39
21:06 Trim Market St 3 25.5 41 65,544 0 11.76 1.05 33.51 56.58 0 0.71 3.88 4.34
21:05 Trim Patrick St 3 24.9 45 69,090 0 31.69 1.07 56.96 42.63 14.01 5.43 11.4 12.54